Location: *
(37.5724°S, 58.0067°E)
Time: 23:48:09
(UTC+00:00)

N. Korean satellite - Visible Passes

Search period start: 26 November 2022 00:00
Search period end: 06 December 2022 00:00
Orbit: 422 x 454 km, 97.3° (Epoch: 26 November)

Date Brightness Start Highest point End Pass type
(mag) Time Alt. Az. Time Alt. Az. Time Alt. Az.
28 Nov 9.4 00:00:00 10° ENE 00:02:37 22° ESE 00:05:16 10° SSE visible
30 Nov 10.1 23:38:20 10° E 23:39:14 11° ESE 23:40:07 10° SE visible
02 Dec 9.6 23:51:49 10° ENE 23:54:01 17° ESE 23:56:12 10° SSE visible
05 Dec 9.0 00:05:54 10° NE 00:08:40 25° ESE 00:11:28 10° SSE visible
